QPF
0.00 0.00 0.00 0.00 0.00 0.00 0.00 0.00 0.00 0.00 0.00 0.00 0.00 0.00 0.00 0.00 0.00 0.00 0.00 0.00 0.00 0.00 0.00 0.00 0.00 0.00 0.00 0.00 0.00 0.00 0.00 0.00 0.00 0.00 0.00 0.00 0.00 0.00 0.00 0.00 0.00 0.00 0.00 0.00 0.00 0.00 0.00
0.00 0.00 0.00 0.00 0.00 0.00 0.00 0.00 0.00 0.00 0.00 0.00 0.00 0.00 0.00 0.00 0.00 0.00 0.00 0.00 0.00 0.00 0.00 0.00 0.00 0.00 0.00 0.00 0.00 0.00 0.00 0.00 0.00 0.00 0.00 0.00 0.00 0.00 0.00 0.00 0.00 0.00 0.00 0.00 0.00 0.00 0.00
0.00 0.00 0.00 0.00 0.00 0.00 0.00 0.00 0.00 0.00 0.00 0.00 0.00 0.00 0.00 0.00 0.00 0.00 0.00 0.00 0.00 0.00 0.00 0.00 0.00 0.00 0.00 0.00 0.00 0.00 0.00 0.00 0.00 0.00 0.00 0.00 0.00 0.00 0.00 0.00 0.00 0.00 0.00 0.00 0.00 0.00 0.00
0.00 0.00 0.00 0.00 0.00 0.00 0.00 0.00 0.00 0.00 0.00 0.00 0.00 0.00 0.00 0.00 0.00 0.00 0.00 0.00 0.00 0.00 0.00 0.00 0.00 0.00 0.00 0.00 0.00 0.00 0.00 0.00 0.00 0.00 0.00 0.00 0.00 0.00 0.00 0.00 0.01 0.00 0.00 0.00 0.00 0.00 0.00
0.00 0.00 0.00 0.00 0.00 0.00 0.00 0.00 0.00 0.00 0.00 0.00 0.00 0.00 0.00 0.00 0.00 0.00 0.00 0.00 0.00 0.00 0.00 0.00 0.00 0.00 0.00 0.00 0.00 0.00 0.00 0.00 0.00 0.00 0.00 0.00 0.00 0.00 0.00 0.01 0.01 0.00 0.00 0.00 0.00 0.00 0.00
0.00 0.00 0.00 0.00 0.00 0.00 0.00 0.00 0.00 0.00 0.00 0.00 0.00 0.00 0.00 0.00 0.00 0.00 0.00 0.00 0.00 0.00 0.00 0.00 0.00 0.00 0.00 0.00 0.00 0.00 0.00 0.00 0.00 0.00 0.00 0.00 0.00 0.00 0.00 0.00 0.00 0.00 0.00 0.00 0.00 0.00 0.00
0.00 0.00 0.00 0.00 0.00 0.00 0.00 0.00 0.00 0.00 0.00 0.00 0.00 0.00 0.00 0.00 0.00 0.00 0.00 0.00 0.00 0.00 0.00 0.00 0.00 0.00 0.00 0.00 0.00 0.00 0.00 0.00 0.00 0.00 0.00 0.00 0.00 0.00 0.00 0.00 0.00 0.00 0.00 0.00 0.00 0.00 0.00
0.00 0.00 0.00 0.00 0.00 0.00 0.00 0.00 0.00 0.00 0.00 0.00 0.00 0.00 0.00 0.00 0.00 0.00 0.00 0.00 0.00 0.00 0.00 0.00 0.00 0.00 0.00 0.00 0.00 0.00 0.00 0.00 0.00 0.00 0.00 0.00 0.00 0.00 0.00 0.00 0.00 0.00 0.00 0.00 0.00 0.00 0.00
0.00 0.00 0.00 0.00 0.00 0.00 0.00 0.00 0.00 0.00 0.00 0.00 0.00 0.00 0.00 0.00 0.00 0.00 0.00 0.00 0.00 0.00 0.00 0.00 0.00 0.00 0.00 0.00 0.00 0.00 0.00 0.00 0.00 0.00 0.00 0.00 0.00 0.00 0.00 0.00 0.00 0.00 0.00 0.00 0.00 0.00 0.00
0.00 0.00 0.00 0.00 0.00 0.00 0.00 0.00 0.00 0.00 0.00 0.00 0.00 0.00 0.00 0.00 0.00 0.00 0.00 0.00 0.00 0.00 0.00 0.00 0.00 0.00 0.00 0.00 0.00 0.00 0.00 0.00 0.00 0.00 0.00 0.00 0.00 0.00 0.00 0.00 0.00 0.00 0.00 0.00 0.00 0.00 0.00
0.00 0.00 0.00 0.00 0.00 0.00 0.00 0.00 0.00 0.00 0.00 0.00 0.00 0.00 0.00 0.00 0.00 0.00 0.00 0.00 0.00 0.00 0.00 0.00 0.00 0.00 0.00 0.00 0.00 0.00 0.00 0.00 0.00 0.00 0.00 0.00 0.00 0.00 0.00 0.00 0.00 0.00 0.00 0.00 0.00 0.00 0.00
0.00 0.00 0.00 0.00 0.00 0.00 0.00 0.00 0.00 0.00 0.00 0.00 0.00 0.00 0.00 0.00 0.00 0.00 0.00 0.00 0.00 0.00 0.00 0.00 0.00 0.00 0.00 0.00 0.00 0.00 0.00 0.00 0.00 0.00 0.00 0.00 0.00 0.00 0.00 0.00 0.00 0.00 0.00 0.00 0.00 0.00 0.00
0.00 0.00 0.00 0.00 0.00 0.00 0.00 0.00 0.00 0.00 0.00 0.00 0.00 0.00 0.00 0.00 0.00 0.00 0.00 0.00 0.00 0.00 0.00 0.00 0.00 0.00 0.00 0.00 0.00 0.00 0.00 0.00 0.00 0.00 0.00 0.00 0.00 0.00 0.00 0.00 0.00 0.00 0.00 0.00 0.00 0.00 0.00
0.00 0.00 0.00 0.00 0.00 0.00 0.00 0.00 0.00 0.00 0.00 0.00 0.00 0.00 0.00 0.00 0.00 0.00 0.00 0.00 0.00 0.00 0.00 0.00 0.00 0.00 0.00 0.00 0.00 0.00 0.00 0.00 0.00 0.00 0.00 0.00 0.00 0.00 0.00 0.00 0.00 0.00 0.00 0.00 0.00 0.00 0.00
0.00 0.00 0.00 0.00 0.00 0.00 0.00 0.00 0.00 0.00 0.00 0.00 0.00 0.00 0.00 0.00 0.00 0.00 0.00 0.00 0.00 0.00 0.00 0.00 0.00 0.00 0.00 0.00 0.00 0.00 0.00 0.00 0.00 0.00 0.00 0.00 0.00 0.00 0.00 0.00 0.00 0.00 0.00 0.00 0.00 0.00 0.00
0.00 0.00 0.00 0.00 0.00 0.00 0.00 0.00 0.00 0.00 0.00 0.00 0.00 0.00 0.00 0.00 0.00 0.00 0.00 0.00 0.00 0.00 0.00 0.00 0.00 0.00 0.00 0.00 0.00 0.00 0.00 0.00 0.00 0.00 0.00 0.00 0.00 0.00 0.00 0.00 0.00 0.00 0.00 0.00 0.00 0.00 0.00
0.00 0.00 0.00 0.00 0.00 0.00 0.00 0.00 0.00 0.00 0.00 0.00 0.00 0.00 0.00 0.00 0.00 0.00 0.00 0.00 0.00 0.00 0.00 0.00 0.00 0.00 0.00 0.00 0.00 0.00 0.00 0.00 0.00 0.00 0.00 0.00 0.00 0.00 0.00 0.00 0.00 0.00 0.00 0.00 0.00 0.00 0.00
0.00 0.00 0.00 0.00 0.00 0.00 0.00 0.00 0.00 0.00 0.00 0.00 0.00 0.00 0.00 0.00 0.00 0.00 0.00 0.00 0.00 0.00 0.00 0.00 0.00 0.00 0.00 0.00 0.00 0.00 0.00 0.00 0.00 0.00 0.00 0.00 0.00 0.00 0.00 0.00 0.00 0.00 0.00 0.00 0.00 0.00 0.00
0.00 0.00 0.00 0.00 0.00 0.00 0.00 0.00 0.00 0.00 0.00 0.00 0.00 0.00 0.00 0.00 0.00 0.00 0.00 0.00 0.00 0.00 0.00 0.00 0.00 0.00 0.00 0.00 0.00 0.00 0.00 0.00 0.00 0.00 0.00 0.00 0.00 0.00 0.00 0.00 0.00 0.00 0.00 0.00 0.00 0.00 0.00
0.00 0.00 0.00 0.00 0.00 0.00 0.00 0.00 0.00 0.00 0.00 0.00 0.00 0.00 0.00 0.00 0.00 0.00 0.00 0.00 0.00 0.00 0.00 0.00 0.00 0.00 0.00 0.00 0.00 0.00 0.00 0.00 0.00 0.00 0.00 0.00 0.00 0.00 0.00 0.00 0.00 0.00 0.00 0.00 0.00 0.00 0.00
0.00 0.00 0.00 0.00 0.00 0.00 0.00 0.00 0.00 0.00 0.00 0.00 0.00 0.00 0.00 0.00 0.00 0.00 0.00 0.00 0.00 0.00 0.00 0.00 0.00 0.00 0.00 0.00 0.00 0.00 0.00 0.00 0.00 0.00 0.00 0.00 0.00 0.00 0.00 0.00 0.00 0.00 0.00 0.00 0.00 0.00 0.00
0.00 0.00 0.00 0.00 0.00 0.00 0.00 0.00 0.00 0.00 0.00 0.00 0.00 0.00 0.00 0.00 0.00 0.00 0.00 0.00 0.00 0.00 0.00 0.00 0.00 0.00 0.00 0.00 0.00 0.00 0.00 0.00 0.00 0.00 0.00 0.00 0.00 0.00 0.00 0.00 0.00 0.00 0.00 0.00 0.00 0.00 0.00
0.00 0.00 0.00 0.00 0.00 0.00 0.00 0.00 0.00 0.00 0.00 0.00 0.00 0.00 0.00 0.00 0.00 0.00 0.00 0.00 0.00 0.00 0.00 0.00 0.00 0.00 0.00 0.00 0.00 0.00 0.00 0.00 0.00 0.00 0.00 0.00 0.00 0.00 0.00 0.00 0.00 0.00 0.00 0.00 0.00 0.00 0.00
0.00 0.00 0.00 0.00 0.00 0.00 0.00 0.00 0.00 0.00 0.00 0.00 0.00 0.00 0.00 0.00 0.00 0.00 0.00 0.00 0.00 0.00 0.00 0.00 0.00 0.00 0.00 0.00 0.00 0.00 0.00 0.00 0.00 0.00 0.00 0.00 0.00 0.00 0.00 0.00 0.00 0.00 0.00 0.00 0.00 0.00 0.00
0.00 0.00 0.00 0.00 0.00 0.00 0.00 0.00 0.00 0.00 0.00 0.00 0.00 0.00 0.00 0.00 0.00 0.00 0.00 0.00 0.00 0.00 0.00 0.00 0.00 0.00 0.00 0.00 0.00 0.00 0.00 0.00 0.00 0.00 0.00 0.00 0.00 0.00 0.00 0.00 0.00 0.00 0.00 0.00 0.00 0.00 0.00
0.00 0.00 0.00 0.00 0.00 0.00 0.00 0.00 0.00 0.00 0.00 0.00 0.00 0.00 0.00 0.00 0.00 0.00 0.00 0.00 0.00 0.00 0.00 0.00 0.00 0.00 0.00 0.00 0.00 0.00 0.00 0.00 0.00 0.00 0.00 0.00 0.00 0.00 0.00 0.00 0.00 0.00 0.00 0.00 0.00 0.00 0.00
0.00 0.00 0.00 0.00 0.00 0.00 0.00 0.00 0.00 0.00 0.00 0.00 0.00 0.00 0.00 0.00 0.00 0.00 0.00 0.00 0.00 0.00 0.00 0.00 0.00 0.00 0.00 0.00 0.00 0.00 0.00 0.00 0.00 0.00 0.00 0.00 0.00 0.00 0.00 0.00 0.00 0.00 0.00 0.00 0.00 0.00 0.00
0.00 0.00 0.00 0.00 0.00 0.00 0.00 0.00 0.00 0.00 0.00 0.00 0.00 0.00 0.00 0.00 0.00 0.00 0.00 0.00 0.00 0.00 0.00 0.00 0.00 0.00 0.00 0.00 0.00 0.00 0.00 0.00 0.00 0.00 0.00 0.00 0.00 0.00 0.00 0.00 0.00 0.00 0.00 0.00 0.00 0.00 0.00
0.00 0.00 0.00 0.00 0.00 0.00 0.00 0.00 0.00 0.00 0.00 0.00 0.00 0.00 0.00 0.00 0.00 0.00 0.00 0.00 0.00 0.00 0.00 0.00 0.00 0.00 0.00 0.00 0.00 0.00 0.00 0.00 0.00 0.00 0.00 0.00 0.00 0.00 0.00 0.00 0.00 0.00 0.00 0.00 0.00 0.00 0.00
MSLP
1021.87 1021.38 1020.95 1020.46 1019.95 1019.47 1018.98 1018.54 1018.15 1017.68 1017.09 1016.59 1016.21 1015.75 1015.30 1014.84 1014.45 1013.92 1013.23 1012.78 1012.53 1011.99 1011.49 1011.14 1010.82 1010.77 1010.53 1007.19 1004.65 1005.64 1006.34 1006.64 1006.58 1006.08 1004.10 1003.30 1001.55 999.78 999.90 1000.32 999.90 999.81 1000.00 1000.39 1000.35 1000.65 1000.76
1022.14 1021.62 1021.08 1020.61 1020.16 1019.71 1019.18 1018.59 1018.00 1017.46 1017.01 1016.51 1015.96 1015.56 1015.11 1014.63 1014.10 1013.73 1013.12 1012.40 1012.11 1011.71 1011.17 1010.93 1010.64 1010.66 1008.61 1004.88 1004.25 1005.21 1005.54 1006.16 1004.96 1004.35 1003.20 1002.92 1002.18 1001.76 1000.82 1000.03 999.26 999.77 999.87 999.69 999.73 1000.06 1000.36
1022.37 1021.81 1021.24 1020.64 1020.07 1019.55 1019.04 1018.50 1017.96 1017.43 1016.82 1016.28 1015.79 1015.17 1014.77 1014.38 1013.89 1013.26 1012.88 1012.24 1011.62 1011.13 1010.78 1010.54 1010.42 1009.84 1006.61 1004.05 1003.90 1004.77 1004.96 1004.91 1003.99 1003.60 1002.75 1002.50 1002.54 1001.92 1000.87 999.54 999.76 999.45 998.88 998.36 998.75 999.54 999.76
1022.52 1021.95 1021.39 1020.82 1020.19 1019.51 1018.88 1018.24 1017.60 1016.99 1016.55 1016.07 1015.50 1014.93 1014.38 1013.95 1013.65 1013.13 1012.30 1011.95 1011.37 1010.65 1010.15 1010.14 1010.16 1008.74 1004.74 1003.91 1003.64 1004.16 1004.21 1003.97 1003.69 1003.41 1003.16 1002.70 1002.53 1001.85 1000.82 999.90 1001.29 999.31 999.88 998.12 998.16 999.12 999.51
1022.64 1022.06 1021.45 1020.82 1020.15 1019.47 1018.79 1018.09 1017.41 1016.78 1016.20 1015.65 1015.13 1014.66 1014.11 1013.53 1013.14 1012.95 1012.23 1011.41 1010.99 1010.36 1010.04 1009.97 1009.37 1007.08 1003.70 1004.72 1003.75 1003.43 1003.62 1003.21 1003.25 1003.17 1002.99 1002.94 1002.47 1000.74 999.39 1001.22 1002.99 998.37 998.02 997.29 997.59 998.44 998.84
1022.76 1022.13 1021.50 1020.80 1020.09 1019.38 1018.66 1017.88 1017.10 1016.33 1015.66 1015.26 1014.79 1014.21 1013.71 1013.22 1012.68 1012.39 1011.96 1011.22 1010.52 1010.38 1009.85 1008.77 1007.22 1005.48 1003.57 1002.56 1002.63 1002.95 1003.34 1003.10 1002.83 1002.55 1002.27 1001.88 1000.83 999.36 999.82 999.41 999.73 998.05 997.22 997.08 996.86 997.54 998.11
1023.07 1022.38 1021.66 1020.92 1020.19 1019.38 1018.57 1017.79 1017.00 1016.19 1015.46 1014.83 1014.28 1013.75 1013.23 1012.77 1012.34 1012.14 1011.18 1009.79 1009.42 1008.15 1006.62 1004.26 1003.38 1002.48 1002.48 1002.68 1003.17 1002.77 1002.87 1002.94 1002.60 1002.08 1001.01 999.80 999.20 997.86 999.16 998.52 998.56 998.12 997.21 996.49 996.40 996.91 997.19
1023.33 1022.62 1021.86 1021.01 1020.16 1019.24 1018.37 1017.55 1016.69 1015.86 1015.05 1014.36 1013.78 1013.20 1012.74 1012.33 1011.94 1011.77 1011.53 1007.18 1006.34 1006.10 1004.18 1003.01 1002.84 1002.52 1002.45 1002.48 1001.99 1001.84 1002.54 1002.35 1001.60 1000.97 999.98 999.26 998.38 997.81 998.20 998.38 997.99 997.47 996.47 996.48 996.11 996.20 996.05
1023.46 1022.75 1021.92 1021.02 1020.14 1019.14 1018.12 1017.18 1016.26 1015.39 1014.60 1013.82 1013.24 1012.71 1012.30 1012.00 1011.68 1010.89 1007.57 1006.46 1006.17 1005.68 1003.78 1002.25 1001.98 1001.66 1001.46 1001.88 1001.44 1000.77 1001.89 1001.53 1000.82 1000.13 999.45 998.74 997.47 1000.24 998.22 998.09 997.59 996.59 996.33 996.57 996.48 996.08 995.00
1023.63 1022.83 1022.02 1021.12 1020.13 1019.09 1017.98 1016.98 1015.94 1014.94 1014.05 1013.31 1012.70 1012.23 1011.93 1011.71 1011.75 1007.33 1006.30 1006.28 1005.87 1005.60 1002.78 1001.29 1001.38 1001.08 1001.56 1001.54 1000.71 1000.36 1000.37 1001.00 1000.22 999.90 999.36 998.53 997.76 997.49 997.98 997.82 997.40 996.16 996.45 996.81 996.49 996.01 994.48
1023.66 1022.87 1022.02 1021.08 1020.09 1019.07 1017.94 1016.77 1015.63 1014.63 1013.74 1012.95 1012.30 1011.82 1011.54 1011.51 1008.86 1006.36 1006.53 1006.14 1005.75 1005.09 1001.21 1000.64 1000.41 1001.34 1000.89 1000.78 999.87 999.40 999.74 1000.15 999.96 999.44 999.15 998.37 997.70 997.48 997.41 997.30 997.09 996.86 996.81 996.85 996.39 995.69 994.66
1023.77 1022.93 1022.04 1021.08 1020.03 1018.99 1017.92 1016.79 1015.58 1014.48 1013.55 1012.76 1012.16 1011.66 1011.47 1010.77 1008.40 1006.86 1006.41 1006.01 1005.56 1003.70 1000.27 1000.16 1000.06 1000.11 999.92 999.87 999.78 999.47 999.95 1000.01 999.95 999.50 999.09 998.33 997.70 997.31 997.28 997.64 997.55 997.57 997.23 996.67 995.73 994.92 994.18
1024.01 1023.12 1022.17 1021.21 1020.25 1019.15 1017.97 1016.82 1015.72 1014.57 1013.61 1012.85 1012.17 1011.70 1011.54 1009.08 1006.70 1006.75 1006.33 1005.24 1003.45 1001.03 1000.76 1000.20 999.73 999.78 999.37 998.97 998.95 999.08 999.05 999.15 999.33 999.00 998.16 997.73 997.07 996.84 997.11 997.02 997.12 997.16 996.54 995.56 994.40 994.32 994.12
1024.29 1023.43 1022.46 1021.41 1020.33 1019.22 1018.07 1016.93 1015.78 1014.68 1013.61 1012.77 1012.07 1011.62 1009.51 1008.03 1006.98 1006.77 1005.80 1004.25 1002.13 1001.38 1000.90 1001.04 1000.68 1000.14 999.42 999.04 998.86 998.92 998.87 998.30 997.95 998.15 997.25 996.26 995.34 995.36 995.44 995.89 996.24 996.08 995.76 994.95 994.11 993.42 994.28
1024.61 1023.71 1022.75 1021.64 1020.51 1019.29 1018.16 1017.00 1015.70 1014.48 1013.49 1012.53 1011.86 1009.72 1007.19 1006.79 1006.88 1006.77 1005.30 1002.93 1001.70 1002.28 1002.83 1001.93 1001.02 1000.02 999.12 999.20 999.65 998.93 998.48 998.07 997.85 998.34 998.07 996.70 995.52 994.84 994.50 994.78 995.59 995.72 995.60 995.60 994.87 994.49 993.75
1024.98 1024.07 1023.14 1022.08 1021.01 1019.76 1018.35 1017.13 1015.94 1014.42 1013.13 1012.38 1010.45 1007.18 1006.56 1006.46 1006.45 1005.95 1004.52 1003.22 1003.10 1003.96 1003.89 1002.83 1001.60 1000.72 999.87 999.17 999.66 998.85 998.34 999.33 999.45 999.94 999.84 998.39 996.76 995.69 995.25 995.35 995.76 995.85 996.00 995.52 994.77 994.62 993.83
1025.43 1024.57 1023.60 1022.51 1021.38 1020.15 1018.87 1017.42 1016.33 1014.83 1012.65 1011.86 1009.89 1006.12 1006.31 1006.05 1005.89 1004.73 1003.37 1003.45 1004.37 1004.68 1004.89 1003.85 1002.68 1002.11 1001.49 1000.85 1000.58 1000.18 999.74 999.89 1000.72 1000.65 1000.29 999.61 998.23 996.78 995.66 995.34 995.45 994.98 995.21 995.77 995.64 994.41 993.37
1025.81 1025.04 1024.16 1023.14 1022.06 1020.79 1019.30 1017.92 1016.57 1015.59 1013.33 1010.33 1008.30 1005.48 1006.40 1005.95 1004.74 1004.33 1003.83 1005.36 1006.84 1005.06 1005.04 1004.62 1004.34 1003.54 1002.96 1002.41 1001.84 1001.25 1000.58 1000.54 1001.78 1001.99 1000.99 999.87 999.10 997.48 995.97 995.14 994.93 995.32 994.98 994.75 994.86 995.07 994.15
1026.16 1025.48 1024.67 1023.83 1022.88 1021.76 1020.45 1018.87 1017.19 1016.04 1016.47 1014.23 1009.03 1007.00 1006.49 1005.47 1004.26 1004.41 1005.43 1005.56 1006.23 1005.95 1005.48 1005.45 1004.96 1004.59 1004.61 1003.99 1003.39 1002.16 1001.71 1001.89 1002.85 1003.15 1002.34 1001.51 1000.09 998.33 996.78 995.90 995.31 994.98 995.56 995.46 995.15 994.56 993.84
1026.48 1025.82 1025.15 1024.46 1023.63 1022.63 1021.46 1020.12 1018.45 1016.79 1015.59 1014.75 1009.88 1007.29 1006.73 1006.64 1006.87 1006.48 1006.43 1005.90 1006.16 1006.56 1006.82 1006.96 1006.35 1005.98 1005.39 1004.70 1004.23 1003.35 1003.03 1002.67 1003.54 1004.01 1004.40 1004.28 1001.99 1000.23 998.30 996.70 995.72 995.84 995.43 995.43 995.12 994.30 993.77
1026.68 1026.09 1025.56 1024.95 1024.17 1023.39 1022.36 1021.12 1019.55 1017.56 1015.37 1014.26 1011.35 1010.56 1010.60 1008.02 1007.60 1008.08 1007.64 1007.59 1007.24 1006.94 1007.47 1007.61 1006.89 1006.73 1006.77 1006.33 1005.25 1004.53 1003.92 1003.38 1003.31 1003.91 1004.35 1003.94 1002.15 1001.09 999.65 998.69 997.88 996.89 996.72 996.51 996.05 995.43 994.40
1026.84 1026.31 1025.73 1025.17 1024.59 1023.92 1023.10 1022.13 1020.89 1019.02 1016.73 1014.01 1013.04 1012.77 1011.56 1009.92 1009.13 1008.67 1008.84 1008.07 1008.59 1008.59 1009.17 1008.14 1008.11 1007.99 1008.19 1007.82 1007.40 1006.73 1006.25 1005.64 1005.00 1004.61 1004.24 1003.40 1002.21 1001.81 1000.44 1000.01 999.20 997.77 997.14 996.73 996.32 996.09 995.63
1026.89 1026.44 1025.88 1025.33 1024.86 1024.27 1023.60 1022.82 1021.96 1020.79 1018.55 1016.09 1015.80 1014.40 1013.33 1010.87 1009.78 1009.22 1009.27 1009.81 1009.90 1010.06 1009.54 1009.78 1009.75 1009.53 1009.05 1008.80 1008.85 1008.62 1007.95 1006.96 1006.08 1005.41 1004.65 1004.07 1003.18 1002.46 1000.43 1000.21 999.27 997.40 996.93 996.73 996.14 995.70 995.29
1026.84 1026.41 1025.95 1025.43 1024.94 1024.48 1023.91 1023.38 1022.76 1022.00 1021.46 1018.83 1017.88 1016.50 1013.83 1011.23 1010.60 1010.55 1011.06 1011.06 1010.76 1010.69 1010.65 1010.31 1010.29 1010.04 1009.61 1009.71 1009.48 1008.43 1007.22 1006.38 1005.88 1005.13 1004.88 1004.07 1003.63 1003.13 1001.45 1000.98 998.83 996.71 996.88 996.43 995.49 994.88 994.62
1026.91 1026.54 1026.07 1025.61 1025.09 1024.60 1024.14 1023.72 1023.31 1022.80 1022.14 1020.02 1018.94 1017.65 1015.68 1013.41 1012.10 1011.29 1011.43 1011.48 1011.18 1010.73 1010.33 1009.78 1009.96 1010.32 1010.41 1010.06 1008.69 1006.63 1004.99 1003.22 1003.30 1003.49 1003.64 1003.54 1003.41 1002.75 1001.74 1000.54 998.98 997.64 996.72 996.37 995.69 994.86 994.70
1026.85 1026.58 1026.21 1025.70 1025.16 1024.66 1024.26 1023.88 1023.58 1023.23 1022.71 1020.73 1019.42 1019.22 1017.54 1015.35 1012.54 1013.08 1012.57 1012.04 1011.61 1010.60 1009.78 1009.28 1010.29 1010.53 1010.54 1009.72 1008.18 1006.65 1005.06 1004.14 1003.65 1002.70 1002.56 1002.59 1002.50 1002.70 1002.22 1000.73 998.56 996.93 996.98 996.64 996.13 994.39 995.43
1026.82 1026.48 1026.10 1025.70 1025.22 1024.70 1024.24 1023.90 1023.69 1023.45 1023.10 1022.28 1019.73 1019.66 1018.55 1016.26 1013.69 1013.73 1012.87 1012.82 1012.76 1011.69 1010.70 1009.85 1010.01 1010.25 1009.86 1009.17 1007.62 1006.24 1005.13 1004.83 1004.09 1003.63 1003.27 1002.70 1002.28 1001.87 1001.30 1000.16 998.42 998.66 998.29 997.54 996.77 995.96 995.99
1026.75 1026.35 1025.93 1025.49 1025.06 1024.64 1024.20 1023.89 1023.71 1023.50 1023.32 1022.55 1019.92 1020.07 1019.70 1017.37 1015.07 1014.32 1013.77 1013.74 1013.00 1012.42 1011.47 1010.73 1010.85 1009.79 1009.79 1008.89 1007.66 1006.47 1005.80 1005.20 1004.82 1004.49 1004.21 1004.07 1003.79 1002.80 1001.90 1000.36 997.93 998.87 998.48 998.09 997.24 997.22 997.77
1026.65 1026.24 1025.81 1025.36 1024.90 1024.49 1024.20 1023.91 1023.70 1023.53 1023.34 1023.04 1020.26 1019.57 1019.80 1019.13 1015.87 1015.14 1014.57 1014.25 1013.82 1013.32 1012.82 1012.11 1011.34 1010.87 1010.27 1009.74 1008.76 1008.13 1007.46 1006.99 1006.46 1005.12 1005.31 1004.65 1004.50 1003.94 1003.81 1001.61 1000.58 1000.08 999.45 998.63 998.04 997.86 998.52
Thickness
5744 5747 5750 5753 5756 5758 5761 5763 5765 5767 5771 5774 5776 5778 5781 5784 5788 5793 5798 5802 5804 5809 5814 5816 5820 5821 5825 5839 5847 5862 5857 5855 5855 5855 5856 5853 5857 5850 5845 5855 5860 5854 5858 5860 5863 5859 5856
5743 5747 5750 5753 5756 5758 5761 5764 5766 5769 5771 5773 5777 5779 5782 5785 5789 5792 5798 5804 5806 5811 5816 5818 5820 5821 5834 5834 5875 5866 5865 5858 5865 5863 5864 5863 5857 5863 5856 5863 5860 5869 5865 5865 5869 5862 5861
5742 5746 5750 5753 5757 5760 5762 5765 5767 5769 5772 5775 5777 5781 5784 5786 5789 5794 5797 5804 5809 5813 5817 5820 5822 5827 5839 5848 5878 5871 5870 5864 5875 5872 5862 5874 5871 5861 5868 5868 5884 5879 5863 5872 5872 5867 5860
5741 5745 5749 5752 5756 5760 5763 5766 5769 5772 5773 5775 5778 5781 5784 5787 5789 5793 5799 5803 5810 5815 5819 5821 5822 5832 5838 5874 5879 5872 5875 5870 5879 5880 5874 5880 5879 5868 5870 5887 5845 5865 5842 5849 5874 5869 5868
5741 5744 5748 5752 5755 5759 5762 5766 5770 5773 5776 5778 5780 5782 5785 5788 5791 5792 5797 5804 5809 5814 5818 5820 5825 5835 5838 5867 5858 5874 5877 5864 5871 5875 5876 5878 5873 5871 5885 5801 5778 5880 5855 5865 5860 5878 5869
5740 5744 5748 5751 5755 5759 5762 5767 5771 5776 5779 5780 5782 5785 5787 5789 5792 5794 5796 5802 5807 5810 5817 5826 5837 5828 5852 5849 5867 5870 5877 5873 5862 5865 5862 5864 5870 5866 5839 5849 5810 5847 5861 5864 5863 5875 5871
5737 5742 5746 5750 5754 5758 5762 5766 5771 5775 5779 5783 5786 5788 5790 5791 5793 5793 5801 5811 5808 5811 5827 5836 5841 5846 5847 5863 5870 5862 5870 5861 5861 5856 5841 5875 5855 5849 5840 5868 5867 5866 5869 5865 5879 5887 5873
5734 5738 5743 5748 5752 5757 5762 5767 5772 5776 5781 5785 5788 5791 5792 5793 5794 5793 5793 5819 5820 5827 5817 5848 5848 5848 5856 5862 5842 5857 5871 5844 5847 5834 5863 5861 5850 5882 5879 5875 5871 5872 5869 5856 5882 5892 5888
5732 5736 5740 5746 5750 5756 5762 5768 5774 5779 5783 5788 5791 5793 5794 5794 5794 5799 5823 5820 5832 5834 5815 5834 5847 5845 5850 5856 5841 5851 5859 5855 5846 5843 5852 5845 5869 5845 5869 5865 5863 5877 5863 5859 5858 5879 5901
5729 5734 5738 5743 5748 5754 5761 5768 5775 5781 5787 5791 5794 5796 5796 5796 5794 5828 5819 5828 5834 5834 5806 5821 5830 5845 5850 5852 5837 5873 5876 5856 5850 5838 5851 5853 5881 5873 5858 5855 5870 5862 5880 5868 5865 5862 5857
5727 5731 5736 5741 5746 5753 5760 5768 5776 5782 5788 5793 5797 5799 5800 5798 5818 5819 5821 5831 5833 5827 5784 5831 5836 5864 5857 5840 5852 5858 5882 5859 5835 5843 5851 5842 5860 5860 5853 5862 5877 5859 5880 5868 5870 5866 5876
5725 5730 5735 5740 5746 5753 5759 5767 5775 5782 5788 5793 5797 5800 5800 5806 5819 5825 5830 5832 5823 5789 5787 5819 5841 5835 5837 5844 5845 5858 5852 5865 5860 5842 5848 5848 5879 5871 5863 5867 5869 5871 5862 5867 5878 5877 5851
5721 5727 5732 5738 5743 5750 5757 5764 5771 5779 5786 5791 5796 5799 5800 5813 5818 5829 5831 5822 5792 5794 5829 5814 5822 5834 5835 5834 5839 5843 5838 5834 5820 5806 5815 5841 5851 5871 5873 5851 5867 5862 5855 5832 5839 5837 5837
5717 5722 5728 5734 5741 5747 5753 5760 5767 5776 5784 5791 5796 5799 5815 5822 5829 5829 5825 5805 5780 5808 5810 5825 5821 5825 5818 5832 5834 5835 5831 5828 5851 5840 5832 5832 5834 5866 5883 5861 5848 5857 5862 5842 5814 5837 5843
5712 5718 5723 5730 5737 5744 5751 5758 5768 5777 5784 5792 5797 5815 5828 5830 5829 5827 5809 5792 5802 5801 5803 5804 5814 5809 5820 5828 5822 5827 5831 5835 5847 5843 5816 5826 5835 5883 5886 5887 5873 5850 5838 5872 5851 5863 5851
5706 5712 5717 5724 5731 5739 5748 5757 5766 5777 5787 5792 5809 5825 5821 5832 5832 5822 5803 5786 5800 5802 5800 5805 5790 5810 5802 5823 5810 5825 5831 5825 5821 5827 5833 5827 5810 5857 5867 5874 5866 5852 5864 5831 5852 5808 5809
5699 5704 5711 5718 5725 5734 5743 5754 5762 5773 5790 5796 5808 5815 5824 5834 5831 5814 5796 5800 5796 5803 5796 5790 5792 5791 5798 5799 5804 5803 5810 5818 5815 5814 5826 5822 5818 5825 5855 5842 5834 5850 5839 5837 5842 5850 5829
5692 5697 5702 5709 5718 5727 5738 5749 5759 5766 5784 5807 5817 5805 5826 5833 5802 5808 5801 5791 5770 5796 5798 5792 5791 5790 5786 5790 5787 5791 5796 5807 5806 5806 5796 5822 5807 5799 5828 5866 5873 5854 5845 5852 5817 5809 5841
5685 5689 5694 5700 5708 5716 5726 5739 5752 5760 5756 5771 5802 5804 5825 5826 5793 5795 5793 5791 5787 5782 5785 5780 5779 5786 5783 5773 5762 5787 5792 5801 5793 5785 5783 5797 5791 5783 5803 5833 5853 5840 5838 5843 5846 5850 5826
5677 5682 5686 5691 5698 5706 5715 5726 5739 5752 5761 5768 5793 5788 5800 5802 5794 5782 5774 5780 5773 5783 5771 5769 5769 5774 5769 5767 5775 5769 5772 5787 5780 5775 5760 5765 5771 5773 5770 5801 5831 5811 5826 5833 5834 5823 5831
5670 5674 5678 5683 5689 5695 5704 5714 5726 5743 5760 5768 5778 5762 5761 5767 5773 5766 5770 5765 5759 5759 5766 5762 5757 5757 5749 5738 5752 5755 5766 5771 5777 5765 5760 5759 5748 5766 5780 5790 5797 5804 5800 5805 5803 5818 5815
5663 5667 5672 5677 5682 5687 5693 5701 5711 5727 5745 5761 5754 5746 5757 5762 5766 5761 5746 5758 5744 5744 5736 5740 5737 5741 5735 5725 5728 5725 5732 5735 5736 5749 5746 5758 5739 5748 5747 5764 5770 5771 5791 5795 5800 5803 5806
5659 5662 5667 5671 5675 5679 5685 5691 5698 5708 5724 5738 5736 5743 5739 5739 5754 5752 5747 5736 5731 5731 5736 5730 5723 5717 5716 5720 5722 5720 5722 5726 5726 5721 5724 5727 5726 5723 5722 5751 5753 5746 5773 5782 5791 5803 5804
5656 5659 5662 5665 5669 5672 5676 5681 5685 5691 5695 5712 5713 5717 5727 5737 5742 5735 5725 5723 5721 5720 5711 5717 5716 5707 5717 5720 5714 5716 5720 5718 5716 5718 5721 5711 5710 5711 5709 5721 5698 5767 5790 5786 5785 5796 5808
5651 5653 5656 5659 5662 5665 5668 5671 5674 5678 5683 5696 5700 5702 5709 5713 5725 5727 5719 5714 5717 5719 5714 5715 5712 5708 5707 5698 5694 5703 5714 5727 5721 5725 5719 5719 5706 5695 5691 5699 5723 5744 5768 5764 5765 5770 5798
5645 5647 5650 5652 5655 5657 5660 5662 5663 5667 5671 5681 5689 5686 5691 5694 5714 5706 5702 5705 5699 5707 5709 5712 5705 5702 5693 5683 5685 5674 5680 5693 5689 5706 5724 5719 5716 5694 5687 5678 5687 5742 5759 5772 5770 5742 5782
5639 5641 5643 5646 5648 5651 5653 5655 5655 5656 5659 5662 5679 5675 5677 5683 5706 5697 5696 5691 5692 5693 5691 5698 5690 5683 5688 5673 5674 5677 5679 5692 5674 5676 5683 5692 5696 5686 5688 5682 5708 5733 5738 5746 5705 5734 5763
5631 5633 5636 5638 5641 5643 5645 5646 5647 5647 5648 5651 5668 5663 5661 5673 5686 5690 5690 5681 5682 5681 5674 5682 5671 5676 5666 5659 5668 5675 5673 5680 5673 5681 5674 5667 5661 5670 5680 5674 5682 5728 5721 5700 5729 5737 5732
5622 5625 5627 5630 5633 5635 5636 5637 5638 5638 5638 5639 5657 5656 5652 5650 5673 5678 5678 5677 5673 5671 5664 5663 5659 5654 5655 5648 5655 5658 5655 5661 5657 5656 5676 5655 5663 5653 5654 5668 5695 5699 5696 5712 5720 5720 5710